Погода в Ялтуровске

Погода в Ялтуровске : погода сейчас, прогноз погоды и архив. Всё, что Вы хотите узнать о погоде в Ялтуровске!

Хотите узнать прогноз погоды в Ялтуровске? Тогда Вам сюда: Погода в Ялтуровске

Поиск расширенной информации на нашем сайте:

Другие новости

Новости СМИ2

Главная страница сайта

Новости сайта

03.07.2017

Напоминаем, что на нашем специализированном сайте Метеоцентр.Азия вы можете получить высокодетализированные автоматические прогнозы погоды по пунктам России, СНГ и мира в авиационном формате (включающие направление и скорость ветра, видимость, явления погоды, количество и форму облачности, нижнюю и верхнюю границу облачности).


Погода в Ялтуровске - сегодня

Время (UTC), дата Ветер
(°,м/с) 
Видим.   Явления Облачность Т
(°С)
Тd
(°С)
f(%) Тe
(°С)
Pmin
(гПа)
dP
(гПа)
Po
(мм)
O2
(г/м3)
Тmin Tmax R s Состояние
почвы
03 15.11.18 250 (З) 20000 м    8/4 600 м средняя, верхняя 
[Sc|Ac trans|Ci sp]
-3.4 -13.1 47 -6  1030.1  1.3  767  314  -3.9      равномерный
сухой снег
100% 
06 15.11.18 260 (З) 20000 м    6/0 верхняя 
[Ci sp]
-2.6 -11.9 49 -5  1031.2  1.1  767  313           
09 15.11.18 290 (З) 20000 м    6/0 верхняя 
[Ci sp]
-1.5 -10.7 49 -3  1032.6  1.4  769  312           
12 15.11.18 280 (З) 20000 м    10/0 средняя 
[Ac und]
-1.5 -9.7 54 -2  1034.5  1.9  770  313           
18 15.11.18 300 (СЗ) 20000 м    10/0 средняя 
[Ac As]
-2.7 -8 67 -2  1038.1  1.5  773  315           
21 15.11.18 300 (СЗ) 20000 м    10/0 средняя 
[Ac As]
-2.8 -8 67 -2  1039.3  1.2  773  316           
00 16.11.18 300 (СЗ) 20000 м    10/0 средняя 
[Ac As]
-2.9 -7.5 71 -2  1040.4  1.1  774  316           
03 16.11.18 тихо ()   20000 м    8/0 средняя 
[Ac trans]
-3.3 -6.6 78 -3  1040.7  0.3  775  317  -3.3      равномерный
сухой снег
100% 
06 16.11.18 170 (Ю) 4000 м  слаб. снег  10/0 средняя 
[As op]
-3.2 -5.8 82 -5  1040.5  -0.2  774  316           
09 16.11.18 210 (ЮЗ) 4000 м  слаб. снег  10/0 средняя 
[As op]
-2.9 -6.2 78 -5  1038.8  -1.7  773  316           
12 16.11.18 200 (Ю) 20000 м  в посл. час снег  10/0 средняя 
[As op]
-3 -5.9 80 -5  1036.1  -2.6  771  315           
18 16.11.18 210 (ЮЗ) 20000 м    10/0 средняя 
[Ac As]
-2.9 -6.7 75 -5  1029.8  -3.6  766  313           
21 16.11.18 190 (Ю) 4000 м  слаб. снег  10/10 600 м 
[Sc]
-3.9 -5.1 91 -5  1026.1  -3.7  764  313           
00 17.11.18 210 (ЮЗ) 4000 м  слаб. снег  10/10 600 м 
[Ns]
-3.7 -4.7 93 -3  1022.7  -3.3  761  311           
03 17.11.18 270 (З) 4000 м  слаб. снег  10/0 средняя 
[Ac As]
-3 -3.9 94 -4  1020.5  -2.2  759  310  -4.1    равномерный
сухой снег
100% 
06 17.11.18 310 (СЗ) 4000 м  слаб. снег  10/10 600 м 
[Ns]
-2.1 -3.6 89 -4  1019.8  -0.7  759  309           
09 17.11.18 320 (СЗ) 4000 м  слаб. снег  10/10 600 м 
[Ns]
-1.8 -3.6 87 -3  1018.6  -1.2  758  308           
12 17.11.18 320 (СЗ) 4000 м  слаб. снег  10/6 600 м средняя 
[Sc|Ac und]
-2.7 -4 91 -4  1018.6  758  309           
15 17.11.18 320 (СЗ) 4000 м  слаб. снег  10/5 600 м средняя 
[Sc|As op]
-2.7 -3.8 92 -2  1019.2  0.6  759  309    -1.7  0.5     
18 17.11.18 010 (С) 20000 м  {снег}  10/8 600 м средняя 
[Sc|As op]
-2.8 -4.2 90 -2  1019.7  0.5  759  309           
21 17.11.18 тихо ()   20000 м  {снег}  10/5 600 м средняя 
[Sc|As op]
-3.5 -4.8 91 -4  1020.5  0.7  759  311           
00 18.11.18 тихо ()   20000 м  {снег}  10/3 600 м средняя 
[Sc|As op]
-4.1 -5.1 93 -4  1021.8  1.3  760  312           
03 18.11.18 130 (ЮВ) 20000 м    10/0 средняя 
[Ac As]
-4.1 -5 93 -5  1023.2  1.4  761  312  -4.3    0.0  равномерный
сухой снег
100% 
06 18.11.18 150 (ЮВ) 20000 м    10/0 средняя 
[Ac As]
-3 -4.6 89 -6  1024.6  1.4  763  311           
09 18.11.18 150 (ЮВ) 20000 м    10/0 средняя 
[As op]
-2.2 -4.8 82 -5  1025.1  0.5  763  310           
Время (UTC), дата Ветер
(°,м/с) 
Видим.   Явления Облачность Т
(°С)
Тd
(°С)
f(%) Тe
(°С)
Pmin
(гПа)
dP
(гПа)
Po
(мм)
O2
(г/м3)
Тmin Tmax R s Состояние
почвы

Для получения пояснительной информации подведите курсор к названию столбца.

ПОГОДА в Ялтуровске - архив

Всё, что Вы хотите узнать о погоде в Ялтуровске - удобно и подробно!

Выберите нужную дату (начиная с 1 января 2015* года) и нажмите кнопку "Найти".
Будут отображены архивные сводки погоды по пункту Ялтуровск, начиная с указанной даты.


Отображать данные в формате CSV (для использования в таблицах Excel)


Внимание! Наш архив погоды предназначен исключительно для личного некоммерческого использования в познавательных целях. Если Вам необходимы официальные справки о состоянии погоды (для производственных, юридических, коммерческих и т.п. целей), обращайтесь в органы Росгидромета.

*Примечание: данная дата относится к архиву по метеостанциям СССР (Россия, СНГ, Балтия).
Архив по метеостанциям Зарубежной Европы и Азии (кроме Китая) хранится 10 дней, по другим регионам земного шара (Китай, Африка, Америка, Австралия, Океания) - 1 день.

Ялтуровск - район местоположения метеостанции


Название, широта, долгота, высота метеостанции:
Ялтуровск 56.7°ш. 66.3°д. 61 м над ур. моря [Российская Федерация]

Дополнительная информация

В oтличие oт бoльшинства пoгoдных сайтoв мы публикуем пoдрoбную метеoинфoрмацию в детальнoм прoфессиoнальнoм фoрмате.

Характеристики температуры и влажнoсти вoздуха измеряются на высoте 2 м в тени вдали oт зданий и деревьев.
Скoрoсть ветра измеряется на высoте 10 м (на урoвне рoста челoвека скoрoсть ветра ниже в 1.5-2 раза). Если метеoстанция нахoдится в гoрoде или в лесу, тo скoрoсть ветра занижена на 2-4 м/с пo сравнению с oткрытым местoм. Скoрoсть ветра над акватoриями крупных рек и oзёр, а также на вершинах хoлмoв на 2-5 м/с выше, чем в oбычных услoвиях.
Атмoсфернoе давление в разных тoчках местнoсти мoжет значительнo oтличаться oт давления на метеoстанции, в зависимoсти oт услoвий рельефа (при пoдъёме на 10 м давление пoнижается примернo на 1 мм рт.ст.).